• In Uzbekistan
  • List of Countries
  • For 7 days
  • Water Temperature
  • Weather Map
  • Weather Widgets
  • user-avatar
    Login

    Hourly Weather Nicosia

    Today, 4 June, Thursday

    Time Temperature Precipitation Wind Pressure Humidity
    00:00 +15°C° 0 mm 6 mps 744 mmHg 87%
    01:00 +14°C° 0 mm 6 mps 744 mmHg 86%
    02:00 +14°C° 0 mm 5 mps 744 mmHg 84%
    03:00 +14°C° 0 mm 5 mps 744 mmHg 83%
    04:00 +14°C° 0 mm 4 mps 744 mmHg 82%
    05:00 +14°C° 0 mm 3 mps 744 mmHg 80%
    06:00 +17°C° 0 mm 3 mps 745 mmHg 73%
    07:00 +19°C° 0 mm 3 mps 745 mmHg 67%
    08:00 +21°C° 0 mm 3 mps 745 mmHg 63%
    09:00 +22°C° 0 mm 3 mps 746 mmHg 61%
    10:00 +23°C° 0 mm 4 mps 746 mmHg 59%
    11:00 +25°C° 0 mm 4 mps 746 mmHg 57%
    12:00 +25°C° 0 mm 5 mps 746 mmHg 55%
    13:00 +25°C° 0 mm 5 mps 746 mmHg 53%
    14:00 +25°C° 0 mm 5 mps 746 mmHg 51%
    15:00 +24°C° 0 mm 6 mps 746 mmHg 50%
    16:00 +24°C° 0 mm 6 mps 746 mmHg 49%
    17:00 +23°C° 0 mm 6 mps 746 mmHg 49%
    18:00 +22°C° 0 mm 6 mps 746 mmHg 57%
    19:00 +20°C° 0 mm 6 mps 747 mmHg 65%
    20:00 +17°C° 0 mm 5 mps 747 mmHg 73%
    21:00 +17°C° 0 mm 5 mps 747 mmHg 72%
    22:00 +17°C° 0 mm 5 mps 747 mmHg 71%
    23:00 +17°C° 0 mm 5 mps 748 mmHg 70%

    Tomorrow, 5 June, Friday

    Time Temperature Precipitation Wind Pressure Humidity
    00:00 +18°C° 0 mm 4 mps 747 mmHg 70%
    01:00 +18°C° 0 mm 4 mps 747 mmHg 70%
    02:00 +18°C° 0 mm 4 mps 747 mmHg 70%
    03:00 +18°C° 0 mm 3 mps 747 mmHg 68%
    04:00 +18°C° 0 mm 3 mps 747 mmHg 65%
    05:00 +18°C° 0 mm 2 mps 747 mmHg 63%
    06:00 +21°C° 0 mm 2 mps 748 mmHg 55%
    07:00 +25°C° 0 mm 2 mps 748 mmHg 47%
    08:00 +27°C° 0 mm 2 mps 748 mmHg 38%
    09:00 +28°C° 0 mm 2 mps 748 mmHg 41%
    10:00 +28°C° 0 mm 2 mps 748 mmHg 43%
    11:00 +28°C° 0 mm 3 mps 748 mmHg 46%
    12:00 +29°C° 0 mm 3 mps 748 mmHg 43%
    13:00 +29°C° 0 mm 3 mps 747 mmHg 40%
    14:00 +30°C° 0 mm 4 mps 747 mmHg 38%
    15:00 +29°C° 0 mm 4 mps 747 mmHg 37%
    16:00 +29°C° 0 mm 4 mps 747 mmHg 36%
    17:00 +29°C° 0 mm 4 mps 746 mmHg 34%
    18:00 +27°C° 0 mm 4 mps 746 mmHg 40%
    19:00 +25°C° 0 mm 4 mps 746 mmHg 45%
    20:00 +22°C° 0 mm 4 mps 747 mmHg 50%
    21:00 +22°C° 0 mm 4 mps 746 mmHg 48%
    22:00 +23°C° 0 mm 4 mps 746 mmHg 45%
    23:00 +23°C° 0 mm 4 mps 746 mmHg 43%

    Day after tomorrow, 6 June, Saturday

    Time Temperature Precipitation Wind Pressure Humidity
    00:00 +23°C° 0 mm 4 mps 746 mmHg 42%
    01:00 +24°C° 0 mm 3 mps 746 mmHg 42%
    02:00 +22°C° 0 mm 3 mps 746 mmHg 42%
    03:00 +22°C° 0 mm 3 mps 746 mmHg 44%
    04:00 +23°C° 0 mm 2 mps 746 mmHg 45%
    05:00 +23°C° 0 mm 2 mps 746 mmHg 46%
    06:00 +26°C° 0 mm 2 mps 746 mmHg 40%
    07:00 +28°C° 0 mm 1 mps 746 mmHg 33%
    08:00 +31°C° 0 mm 1 mps 746 mmHg 26%
    09:00 +32°C° 0 mm 1 mps 746 mmHg 26%
    10:00 +33°C° 0 mm 1 mps 746 mmHg 25%
    11:00 +34°C° 0 mm 1 mps 746 mmHg 25%
    12:00 +33°C° 0 mm 1 mps 746 mmHg 25%
    13:00 +34°C° 0 mm 2 mps 745 mmHg 25%
    14:00 +34°C° 0 mm 2 mps 745 mmHg 25%
    15:00 +34°C° 0 mm 2 mps 745 mmHg 23%
    16:00 +34°C° 0 mm 2 mps 744 mmHg 22%
    17:00 +34°C° 0 mm 2 mps 744 mmHg 20%
    18:00 +30°C° 0 mm 3 mps 744 mmHg 23%
    19:00 +28°C° 0 mm 4 mps 744 mmHg 26%
    20:00 +25°C° 0 mm 4 mps 744 mmHg 30%
    21:00 +25°C° 0 mm 4 mps 744 mmHg 26%
    22:00 +25°C° 0 mm 5 mps 744 mmHg 22%
    23:00 +25°C° 0 mm 5 mps 744 mmHg 18%

    7 June, Sunday

    Time Temperature Precipitation Wind Pressure Humidity
    00:00 +25°C° 0 mm 4 mps 744 mmHg 18%
    01:00 +25°C° 0 mm 4 mps 743 mmHg 19%
    02:00 +24°C° 0 mm 3 mps 743 mmHg 20%
    03:00 +25°C° 0 mm 3 mps 743 mmHg 20%
    04:00 +25°C° 0 mm 3 mps 743 mmHg 21%
    05:00 +25°C° 0 mm 2 mps 743 mmHg 22%
    06:00 +28°C° 0 mm 3 mps 743 mmHg 19%
    07:00 +31°C° 0 mm 3 mps 743 mmHg 16%
    08:00 +34°C° 0 mm 3 mps 744 mmHg 13%
    09:00 +35°C° 0 mm 3 mps 744 mmHg 13%
    10:00 +36°C° 0 mm 4 mps 744 mmHg 13%
    11:00 +36°C° 0 mm 4 mps 744 mmHg 14%
    12:00 +36°C° 0 mm 4 mps 743 mmHg 14%
    13:00 +36°C° 0 mm 5 mps 743 mmHg 14%
    14:00 +36°C° 0 mm 5 mps 743 mmHg 14%
    15:00 +36°C° 0 mm 5 mps 743 mmHg 14%
    16:00 +35°C° 0 mm 6 mps 742 mmHg 15%
    17:00 +34°C° 0 mm 6 mps 742 mmHg 16%
    18:00 +32°C° 0 mm 6 mps 742 mmHg 19%
    19:00 +29°C° 0 mm 6 mps 742 mmHg 23%
    20:00 +26°C° 0 mm 6 mps 742 mmHg 27%
    21:00 +26°C° 0 mm 7 mps 742 mmHg 27%
    22:00 +27°C° 0 mm 7 mps 742 mmHg 27%
    23:00 +27°C° 0 mm 7 mps 742 mmHg 27%

    8 June, Monday

    Time Temperature Precipitation Wind Pressure Humidity
    00:00 +26°C° 0 mm 7 mps 742 mmHg 27%
    01:00 +26°C° 0 mm 7 mps 742 mmHg 27%
    02:00 +26°C° 0 mm 7 mps 742 mmHg 27%
    03:00 +24°C° 0 mm 7 mps 741 mmHg 28%
    04:00 +24°C° 0 mm 7 mps 741 mmHg 29%
    05:00 +24°C° 0 mm 7 mps 741 mmHg 30%
    06:00 +27°C° 0 mm 6 mps 742 mmHg 28%
    07:00 +30°C° 0 mm 6 mps 742 mmHg 25%
    08:00 +34°C° 0 mm 5 mps 742 mmHg 22%
    09:00 +34°C° 0 mm 5 mps 742 mmHg 23%
    10:00 +35°C° 0 mm 4 mps 742 mmHg 25%
    11:00 +35°C° 0 mm 4 mps 742 mmHg 27%
    12:00 +35°C° 0 mm 5 mps 742 mmHg 26%
    13:00 +35°C° 0 mm 5 mps 742 mmHg 26%
    14:00 +35°C° 0 mm 6 mps 742 mmHg 25%
    15:00 +34°C° 0 mm 7 mps 741 mmHg 26%
    16:00 +34°C° 0 mm 7 mps 741 mmHg 27%
    17:00 +33°C° 0 mm 7 mps 741 mmHg 28%
    18:00 +30°C° 0 mm 7 mps 741 mmHg 33%
    19:00 +27°C° 0 mm 7 mps 742 mmHg 39%
    20:00 +23°C° 0 mm 7 mps 742 mmHg 44%
    21:00 +23°C° 0 mm 7 mps 742 mmHg 39%
    22:00 +23°C° 0 mm 7 mps 742 mmHg 35%
    23:00 +23°C° 0 mm 7 mps 742 mmHg 31%

    9 June, Tuesday

    Time Temperature Precipitation Wind Pressure Humidity
    00:00 +23°C° 0 mm 7 mps 741 mmHg 29%
    01:00 +22°C° 0 mm 6 mps 741 mmHg 27%
    02:00 +22°C° 0 mm 6 mps 741 mmHg 25%
    03:00 +22°C° 0 mm 5 mps 741 mmHg 26%
    04:00 +22°C° 0 mm 4 mps 741 mmHg 28%
    05:00 +22°C° 0 mm 3 mps 741 mmHg 30%
    06:00 +25°C° 0 mm 3 mps 741 mmHg 30%
    07:00 +28°C° 0 mm 2 mps 742 mmHg 29%
    08:00 +31°C° 0 mm 2 mps 742 mmHg 29%
    09:00 +31°C° 0 mm 2 mps 742 mmHg 32%
    10:00 +32°C° 0 mm 2 mps 742 mmHg 34%
    11:00 +33°C° 0 mm 3 mps 742 mmHg 36%
    12:00 +34°C° 0 mm 3 mps 742 mmHg 34%
    13:00 +34°C° 0 mm 3 mps 742 mmHg 31%
    14:00 +35°C° 0 mm 3 mps 742 mmHg 28%
    15:00 +34°C° 0 mm 4 mps 742 mmHg 28%
    16:00 +33°C° 0 mm 5 mps 742 mmHg 29%
    17:00 +33°C° 0 mm 6 mps 741 mmHg 29%
    18:00 +29°C° 0 mm 6 mps 742 mmHg 36%
    19:00 +27°C° 0 mm 6 mps 742 mmHg 43%
    20:00 +23°C° 0 mm 6 mps 742 mmHg 50%
    21:00 +23°C° 0 mm 5 mps 742 mmHg 49%
    22:00 +23°C° 0 mm 5 mps 742 mmHg 47%
    23:00 +23°C° 0 mm 4 mps 742 mmHg 46%
    Show more